Flag for Cabo Verde Weather past 2 weeks in Santa Maria, Cabo Verde

Now
66 °F

Haze.


Feels Like: 66 °F
Forecast: 67 / 76 °F
Wind: 23 mph from Northeast

Location: Sal

Current Time: Feb 28, 2015 at 6:00:30 AM

Latest Report: Feb 28, 2015 at 5:00 AM


Visibility: 3 mi

Pressure: 30.01 "Hg

Humidity: 78%

Dew point: 59 °F

Location of Santa MariaLocation

Historic Weather in Santa Maria — Graph

°F

Santa Maria temperature yesterday

Maximum temperature yesterday: 79 °F (at 1:00 PM)
Minimum temperature yesterday: 66 °F (at 1:00 AM)
Average temperature yesterday: 72 °F

Past Weeks' High & Low Weather Summary

 TemperatureHumidityPressure
High79 °F (Feb 27, 1:00 PM)100% (Feb 13, 7:00 AM)30.15 "Hg (Feb 13, 7:00 AM)
Low64 °F (Feb 13, 6:00 AM)47% (Feb 20, 12:00 PM)29.92 "Hg (Feb 26, 3:00 PM)
Average68 °F72%30.05 "Hg
* Reported Feb 13 5:00 AM — Feb 28 5:00 AM, Santa Maria, Weather by CustomWeather, © 2015

Note: Actual official high and low records may vary slightly from our data, if they occured in-between our weather recording intervals... More about our weather records

Advertising

Santa Maria weather history for previous 24 hours

 ConditionsComfort  
Time TempWeatherWind HumidityBarometerVisibility
5:00 AM
Sat, Feb 28
66 °FHaze.23 mph78%30.01 "Hg3 mi
4:00 AM68 °FHaze.22 mph69%30.01 "Hg3 mi
3:00 AM68 °FHaze.21 mph69%30.01 "Hg3 mi
2:00 AM68 °FHaze.18 mph69%30.01 "Hg2 mi
1:00 AM68 °FHaze.18 mph64%30.01 "Hg2 mi
12:00 AM68 °FHaze.18 mph64%30.04 "Hg3 mi
11:00 PM
Fri, Feb 27
68 °FHaze.16 mph64%30.04 "Hg3 mi
10:00 PM68 °FHaze.17 mph64%30.04 "Hg3 mi
9:00 PM68 °FHaze.18 mph69%30.01 "Hg3 mi
8:00 PM68 °FHaze.20 mph64%30.01 "Hg3 mi
7:00 PM70 °FHaze.23 mph64%29.98 "Hg3 mi
6:00 PM72 °FHaze.23 mph61%29.95 "Hg3 mi
5:00 PM75 °FHaze.24 mph54%29.95 "Hg3 mi
4:00 PM77 °FHaze.29 mph47%29.95 "Hg3 mi
3:00 PM77 °FHaze.28 mph51%29.92 "Hg3 mi
2:00 PM79 °FHaze.29 mph48%29.95 "Hg3 mi
1:00 PM79 °FHaze.25 mph48%29.98 "Hg3 mi
12:00 PM77 °FHaze.26 mph51%29.98 "Hg3 mi
11:00 AM77 °FHaze.22 mph54%30.01 "Hg3 mi
10:00 AM75 °FHaze.23 mph57%30.01 "Hg3 mi
9:00 AM72 °FPassing clouds.22 mph65%29.98 "Hg4 mi
8:00 AM70 °FScattered clouds.18 mph69%29.98 "Hg4 mi
7:00 AM70 °FScattered clouds.20 mph69%29.95 "Hg4 mi
6:00 AM68 °FPartly sunny.17 mph73%29.92 "Hg4 mi
Weather by CustomWeather, © 2015

See weather overviewHow to use our weather pages